SL-14 DEB, 45299

Orbit data source: Space-Track

SL-14 DEB, 45299 is space debris in LEO originally from a launch on Thu, 15 Aug 1991 UTC launched from the Plesetsk Missile And Space Complex (PKMTR). Debris objects in space refer to the collection of defunct objects orbiting the Earth. Examples of debris include non-operational satellites, rocket bodies, and fragments generated from explosions, collisions, or faulty payload assembly.

Loading next visibility...
Identifier
45299, 1991-056AM
Orbit
LEO
Country
Flag of CISCIS
Related business
Manufacturer
Unknown
Mission
Spacecraft
Bus & Motor
Unknown
Mass
Unknown
Launch date (UTC)
1991-08-15 (35 years ago)
Launch vehicle
Unknown
Launch site
Plesetsk Missile And Space Complex (PKMTR)
Object type
Payload
Rocket body
Debris
Shape & HBR
Unknown shape, 0.4 m
Radar Cross Section
Medium (>0.1 m² and <1 m²)

Expand to show TLE details & history
Last TLE update: 13 hours ago

TLE from 13 hours ago
0 SL-14 DEB
1 45299U 91056AM  26206.60170469  .00001754  00000-0  46781-2 0  9994
2 45299  82.6359 150.2253 0084673 307.7196  51.6270 13.13558351307830
Epoch: 2026-07-25T14:26Z
TLE epoch observation values (Epoch: 2026-07-25T14:26:27.285Z)
Latitude
-0.00004°
Longitude
-9.70003°
Altitude
1,172.677 km
Speed
7.286 km/s
True Right ascension
10h 00m 54s
True Declination
0° 00' 00"
Sunlit
Object was in daylight at epoch
Visualization orbit readout
Latitude
Unknown
Longitude
Unknown
Altitude
Unknown
Speed
Unknown
Apparent Right ascension
Unknown
Apparent Declination
Unknown
Sunlit
N/A
Visualization observer readout
Local Sidereal Time
17:02:27
Azimuth
Unknown
Elevation
Unknown
Doppler factor
Unknown
Orbital elements
Apogee altitude
1,270.894 km
Perigee altitude
1,142.448 km
Semi-major axis
7,584.808 km
Eccentricity
0.00847
Inclination
82.6359°
RAAN
150.2253°
Arg. of periapsis
307.7196°
True anomaly
52.39269°
Mean anomaly
51.627°
Eccentric anomaly
52.00934°
Mean motion
3.28569 °/min
Orbital period
109.57 mins
BSTAR
0.0046781
Loading maneuver chart data...
Computing Atmospheric mass density...
Loading historical data...
Loading historical data...
Loading historical data...
Loading historical data...
Loading historical data...
Loading historical data...
Loading historical data...

Documentation

Showing up to 5 results
|